Location: Ammerl�gen
(47.2167°N, 9.6000°E)
Time: 09:51:49
(UTC+00:00)

Cosmos 2344 - Pass Details

Date: 21 April 2021
Orbit: 1241 x 3001 km, 63.3° (Epoch: 06 May)

Event Time Altitude Azimuth Distance (km) Brightness Sun altitude
Rises 20:06:26 0° 234° (SW) 4,249 6.5 -16.6°
Reaches altitude 10° 20:09:15 10° 238° (WSW) 3,227 5.9 -17.0°
Maximum altitude 20:16:34 61° 318° (NW) 1,422 4.1 -17.9°
Drops below altitude 10° 20:24:38 10° 39° (NE) 3,535 6.0 -18.9°
Sets 20:27:52 0° 43° (NE) 4,687 6.6 -19.3°
